JCSAT-18 (KACIFIC 1)

Last updated on Sun Jun 21 2026 00:03:08 GMT+0000 (Coordinated Universal Time)

1 44868U 19091A 26171.46595616 -.00000205 00000+0 00000+0 0 9995 2 44868 0.0402 198.2830 0000323 282.1111 105.9994 1.00272178 24048
UTC large
Height (km)
Speed (km/s)
/
Latitude / Longitude
Inclination (degrees)
Orbital Period (minutes)
Azimuth
Elevation
Range (km)
Doppler Factor

Next 0 passes for location: London (51.5072 / 0.1276)

No passes found over London.
JCSAT-18 (KACIFIC 1)